When you browse on this site, cookies collect data to enhance your experience and personalize the content and advertising you see.
Visit our Privacy Policy to learn more. By continuing to use the site, you agree to this use of cookies and data.
  • în România
  • Lista ţărilor
  • Pe 7 zile
  • Temperatura apei
  • Hartă satelitară
  • Meteo pe hartă
  • Widget-uri
  • user-avatar
    Intrare

    Meteo pe oră la Lykovo

    Astăzi, 19 Martie, Marţi

    Timp Temperatura Precipitaţii Vânt Presiune Umiditate
    00:00 0°C° 0.5 mm 5 m/s 748 mmHg 90%
    01:00 0°C° 0.5 mm 4 m/s 748 mmHg 91%
    02:00 0°C° 0 mm 5 m/s 747 mmHg 92%
    03:00 0°C° 0.7 mm 4 m/s 747 mmHg 93%
    04:00 0°C° 0.7 mm 4 m/s 747 mmHg 94%
    05:00 +1°C° 0.7 mm 3 m/s 747 mmHg 95%
    06:00 +1°C° 0.2 mm 3 m/s 747 mmHg 95%
    07:00 +2°C° 0.2 mm 2 m/s 747 mmHg 96%
    08:00 +2°C° 0 mm 2 m/s 747 mmHg 96%
    09:00 +3°C° 0.1 mm 2 m/s 747 mmHg 96%
    10:00 +3°C° 0.1 mm 2 m/s 748 mmHg 96%
    11:00 +4°C° 0.1 mm 2 m/s 748 mmHg 95%
    12:00 +5°C° 0 mm 2 m/s 748 mmHg 93%
    13:00 +5°C° 0 mm 2 m/s 748 mmHg 91%
    14:00 +6°C° 0 mm 2 m/s 748 mmHg 90%
    15:00 +5°C° 0 mm 2 m/s 749 mmHg 91%
    16:00 +4°C° 0 mm 2 m/s 749 mmHg 92%
    17:00 +4°C° 0 mm 2 m/s 749 mmHg 93%
    18:00 +3°C° 0 mm 2 m/s 749 mmHg 93%
    19:00 +2°C° 0 mm 2 m/s 749 mmHg 93%
    20:00 +1°C° 0 mm 2 m/s 750 mmHg 93%
    21:00 +1°C° 0 mm 2 m/s 750 mmHg 93%
    22:00 +1°C° 0 mm 2 m/s 750 mmHg 93%
    23:00 -1°C° 0 mm 2 m/s 750 mmHg 93%

    Mâine, 20 Martie, Miercuri

    Timp Temperatura Precipitaţii Vânt Presiune Umiditate
    00:00 -1°C° 0 mm 2 m/s 750 mmHg 93%
    01:00 -1°C° 0 mm 2 m/s 750 mmHg 93%
    02:00 -1°C° 0 mm 3 m/s 750 mmHg 93%
    03:00 -1°C° 0 mm 3 m/s 750 mmHg 93%
    04:00 -2°C° 0 mm 2 m/s 750 mmHg 93%
    05:00 -2°C° 0 mm 2 m/s 750 mmHg 93%
    06:00 -1°C° 0 mm 3 m/s 750 mmHg 91%
    07:00 -1°C° 0 mm 3 m/s 751 mmHg 90%
    08:00 0°C° 0 mm 3 m/s 751 mmHg 88%
    09:00 0°C° 0 mm 3 m/s 751 mmHg 86%
    10:00 0°C° 0 mm 4 m/s 751 mmHg 84%
    11:00 0°C° 0 mm 4 m/s 751 mmHg 82%
    12:00 +1°C° 0 mm 4 m/s 752 mmHg 79%
    13:00 +1°C° 0 mm 4 m/s 752 mmHg 76%
    14:00 +3°C° 0 mm 4 m/s 752 mmHg 74%
    15:00 +2°C° 0.1 mm 3 m/s 752 mmHg 77%
    16:00 +2°C° 0.1 mm 3 m/s 752 mmHg 81%
    17:00 +2°C° 0.1 mm 2 m/s 752 mmHg 84%
    18:00 +1°C° 0 mm 2 m/s 752 mmHg 86%
    19:00 -1°C° 0 mm 2 m/s 752 mmHg 89%
    20:00 -1°C° 0 mm 2 m/s 752 mmHg 91%
    21:00 -2°C° 0 mm 2 m/s 752 mmHg 91%
    22:00 -2°C° 0 mm 2 m/s 751 mmHg 92%
    23:00 -2°C° 0 mm 2 m/s 751 mmHg 92%

    Poimâine, 21 Martie, Joi

    Timp Temperatura Precipitaţii Vânt Presiune Umiditate
    00:00 -2°C° 0 mm 2 m/s 751 mmHg 91%
    01:00 -2°C° 0 mm 3 m/s 750 mmHg 90%
    02:00 -2°C° 0 mm 3 m/s 750 mmHg 89%
    03:00 -2°C° 0 mm 3 m/s 749 mmHg 89%
    04:00 -2°C° 0 mm 3 m/s 749 mmHg 88%
    05:00 -2°C° 0 mm 3 m/s 748 mmHg 88%
    06:00 -2°C° 0.2 mm 3 m/s 748 mmHg 88%
    07:00 -1°C° 0.2 mm 3 m/s 748 mmHg 88%
    08:00 -1°C° 0.2 mm 3 m/s 747 mmHg 88%
    09:00 0°C° 0.2 mm 3 m/s 748 mmHg 87%
    10:00 +1°C° 0.2 mm 3 m/s 748 mmHg 85%
    11:00 +1°C° 0.2 mm 3 m/s 748 mmHg 84%
    12:00 +2°C° 0.1 mm 3 m/s 748 mmHg 81%
    13:00 +1°C° 0.1 mm 4 m/s 749 mmHg 78%
    14:00 +1°C° 0.1 mm 4 m/s 749 mmHg 75%
    15:00 +1°C° 0 mm 4 m/s 749 mmHg 77%
    16:00 0°C° 0 mm 4 m/s 749 mmHg 79%
    17:00 +1°C° 0 mm 3 m/s 749 mmHg 80%
    18:00 0°C° 0 mm 3 m/s 749 mmHg 84%
    19:00 0°C° 0 mm 3 m/s 749 mmHg 87%
    20:00 -1°C° 0 mm 3 m/s 750 mmHg 91%
    21:00 -1°C° 0 mm 2 m/s 749 mmHg 92%
    22:00 -2°C° 0 mm 2 m/s 749 mmHg 93%
    23:00 -2°C° 0 mm 2 m/s 749 mmHg 94%

    22 Martie, Vineri

    Timp Temperatura Precipitaţii Vânt Presiune Umiditate
    00:00 -2°C° 0 mm 2 m/s 749 mmHg 94%
    01:00 -2°C° 0 mm 2 m/s 748 mmHg 93%
    02:00 -2°C° 0 mm 2 m/s 748 mmHg 93%
    03:00 -2°C° 0.1 mm 3 m/s 747 mmHg 92%
    04:00 -2°C° 0.1 mm 3 m/s 746 mmHg 92%
    05:00 -1°C° 0.1 mm 3 m/s 745 mmHg 91%
    06:00 -1°C° 0.5 mm 4 m/s 745 mmHg 90%
    07:00 0°C° 0.5 mm 5 m/s 744 mmHg 89%
    08:00 +1°C° 0.5 mm 6 m/s 743 mmHg 88%
    09:00 +1°C° 0.1 mm 6 m/s 743 mmHg 80%
    10:00 +2°C° 0.1 mm 7 m/s 743 mmHg 73%
    11:00 +2°C° 0.1 mm 7 m/s 743 mmHg 65%
    12:00 +2°C° 0 mm 7 m/s 744 mmHg 65%
    13:00 0°C° 0 mm 7 m/s 744 mmHg 65%
    14:00 0°C° 0 mm 8 m/s 745 mmHg 65%
    15:00 -1°C° 0 mm 7 m/s 745 mmHg 66%
    16:00 -1°C° 0 mm 6 m/s 745 mmHg 68%
    17:00 -2°C° 0 mm 6 m/s 746 mmHg 70%
    18:00 -2°C° 0 mm 6 m/s 746 mmHg 73%
    19:00 -2°C° 0 mm 6 m/s 747 mmHg 76%
    20:00 -3°C° 0 mm 6 m/s 747 mmHg 79%
    21:00 -1°C° 0 mm 5 m/s 748 mmHg 80%
    22:00 -1°C° 0 mm 5 m/s 749 mmHg 81%
    23:00 -1°C° 0 mm 5 m/s 749 mmHg 83%

    23 Martie, Sâmbătă

    Timp Temperatura Precipitaţii Vânt Presiune Umiditate
    00:00 -2°C° 0 mm 4 m/s 750 mmHg 84%
    01:00 -2°C° 0 mm 4 m/s 750 mmHg 86%
    02:00 -2°C° 0 mm 3 m/s 751 mmHg 88%
    03:00 -2°C° 0 mm 3 m/s 751 mmHg 90%
    04:00 -4°C° 0 mm 3 m/s 751 mmHg 93%
    05:00 -3°C° 0 mm 2 m/s 752 mmHg 95%
    06:00 -3°C° 0 mm 2 m/s 752 mmHg 92%
    07:00 -2°C° 0 mm 2 m/s 752 mmHg 89%
    08:00 -1°C° 0 mm 2 m/s 753 mmHg 86%
    09:00 +1°C° 0 mm 2 m/s 752 mmHg 79%
    10:00 +2°C° 0 mm 2 m/s 752 mmHg 73%
    11:00 +4°C° 0 mm 1 m/s 752 mmHg 66%
    12:00 +4°C° 0 mm 2 m/s 751 mmHg 66%
    13:00 +4°C° 0 mm 2 m/s 751 mmHg 66%
    14:00 +4°C° 0 mm 3 m/s 750 mmHg 66%
    15:00 +3°C° 0 mm 3 m/s 750 mmHg 70%
    16:00 +3°C° 0 mm 3 m/s 749 mmHg 74%
    17:00 +2°C° 0 mm 3 m/s 749 mmHg 78%
    18:00 +2°C° 0 mm 3 m/s 748 mmHg 80%
    19:00 +2°C° 0 mm 3 m/s 747 mmHg 82%
    20:00 +1°C° 0 mm 4 m/s 747 mmHg 83%
    21:00 +1°C° 0.2 mm 4 m/s 746 mmHg 86%
    22:00 +1°C° 0.2 mm 4 m/s 746 mmHg 90%
    23:00 +3°C° 0.2 mm 4 m/s 745 mmHg 93%

    24 Martie, Duminică

    Timp Temperatura Precipitaţii Vânt Presiune Umiditate
    00:00 +2°C° 0.2 mm 5 m/s 745 mmHg 91%
    01:00 +2°C° 0.2 mm 5 m/s 746 mmHg 88%
    02:00 +2°C° 0.2 mm 6 m/s 746 mmHg 86%
    03:00 0°C° 0 mm 5 m/s 746 mmHg 84%
    04:00 -1°C° 0 mm 5 m/s 747 mmHg 83%
    05:00 -2°C° 0 mm 5 m/s 748 mmHg 82%
    06:00 -2°C° 0 mm 5 m/s 748 mmHg 78%
    07:00 -2°C° 0 mm 5 m/s 748 mmHg 74%
    08:00 -3°C° 0 mm 6 m/s 749 mmHg 70%
    09:00 -2°C° 0 mm 6 m/s 749 mmHg 67%
    10:00 -1°C° 0 mm 6 m/s 749 mmHg 65%
    11:00 +1°C° 0 mm 6 m/s 750 mmHg 62%
    12:00 +1°C° 0 mm 6 m/s 750 mmHg 61%
    13:00 +1°C° 0 mm 6 m/s 750 mmHg 60%
    14:00 +1°C° 0 mm 6 m/s 750 mmHg 58%
    15:00 +1°C° 0 mm 5 m/s 750 mmHg 61%
    16:00 0°C° 0 mm 4 m/s 751 mmHg 64%
    17:00 +1°C° 0 mm 2 m/s 751 mmHg 66%
    18:00 -1°C° 0 mm 2 m/s 751 mmHg 71%
    19:00 -2°C° 0 mm 2 m/s 751 mmHg 75%
    20:00 -1°C° 0 mm 1 m/s 751 mmHg 79%
    21:00 -1°C° 0 mm 1 m/s 751 mmHg 79%
    22:00 -1°C° 0 mm 1 m/s 751 mmHg 79%
    23:00 -2°C° 0 mm 0 m/s 751 mmHg 79%
    Arată mai mult